Home > Time Zones > World Clock > Weather > Serbia > Niš > Past weeks

Flag for Serbia Weather past 2 weeks in Niš, Serbia

Now
75 °F

Thunderstorms. Broken clouds.


Feels Like: 76 °F
Forecast: 63 / 85 °F
Wind: 2 mph from North

Location: Nis Airport

Current Time: Jul 28, 2014 at 1:30:57 PM

Latest Report: Jul 28, 2014 at 1:00 PM


Visibility: N/A

Pressure: 29.86 "Hg

Humidity: 78%

Dew point: 68 °F

Location of NišLocation

Historic Weather in Niš — Graph

°F

Niš temperature yesterday

Maximum temperature yesterday: 86 °F (at 3:30 PM)
Minimum temperature yesterday: 63 °F (at 9:00 PM)
Average temperature yesterday: 72 °F

Past Weeks' High & Low Weather Summary

 TemperatureHumidityPressure
High93 °F (Jul 21, 3:30 PM)100% (Jul 14, 3:30 AM)30.04 "Hg (Jul 14, 3:30 AM)
Low59 °F (Jul 16, 4:30 AM)34% (Jul 21, 3:30 PM)29.71 "Hg (Jul 23, 3:00 PM)
Average72 °F75%29.92 "Hg
* Reported Jul 13 12:00 Noon — Jul 28 12:30 PM, Niš, Weather by CustomWeather, © 2014

Note: Actual official high and low records may vary slightly from our data, if they occured in-between our weather recording intervals... More about our weather records

Advertising

Niš weather history for previous 24 hours

 ConditionsComfort  
Time TempWeatherWind HumidityBarometerVisibility
12:30 PM
Jul 28
75 °FThunderstorms. Broken clouds.3 mph78%29.86 "HgN/A
12:00 PM75 °FThunderstorms. Partly sunny.3 mph83%29.86 "HgN/A
11:30 AM77 °FPartly sunny.3 mph79%29.89 "HgN/A
11:00 AM77 °FScattered clouds.3 mph74%29.89 "HgN/A
10:30 AM75 °FPartly sunny.2 mph78%29.89 "HgN/A
10:00 AM72 °FScattered clouds.2 mph88%29.89 "HgN/A
9:30 AM72 °FScattered clouds.3 mph88%29.89 "HgN/A
9:00 AM70 °FScattered clouds.2 mph88%29.89 "HgN/A
8:30 AM68 °FBroken clouds.1 mph94%29.89 "HgN/A
8:00 AM68 °FPartly sunny.2 mph94%29.89 "HgN/A
7:30 AM66 °FThunderstorms. Partly sunny.2 mph100%29.89 "HgN/A
7:00 AM66 °FBroken clouds.2 mph100%29.89 "Hg5 mi
6:30 AM66 °FBroken clouds.1 mph100%29.89 "Hg4 mi
6:00 AM66 °FPassing clouds.1 mph94%29.89 "Hg5 mi
5:00 AM66 °FPassing clouds.1 mph94%29.89 "Hg5 mi
4:30 AM66 °FPassing clouds.1 mph94%29.89 "Hg5 mi
4:00 AM66 °FPassing clouds.1 mph94%29.89 "Hg5 mi
3:30 AM64 °FPassing clouds.No wind100%29.92 "Hg5 mi
3:00 AM64 °FPassing clouds.2 mph100%29.92 "Hg5 mi
2:30 AM64 °FPassing clouds.1 mph100%29.92 "Hg5 mi
2:00 AM64 °FThunderstorms. Passing clouds.1 mph100%29.92 "Hg5 mi
1:30 AM64 °FThunderstorms. Passing clouds.2 mph100%29.92 "Hg5 mi
1:00 AM64 °FThunderstorms. Passing clouds.2 mph100%29.92 "Hg5 mi
12:30 AM66 °FThunderstorms. Passing clouds.5 mph94%29.92 "HgN/A
12:00 AM66 °FThunderstorms. Passing clouds.8 mph94%29.92 "HgN/A
11:30 PM
Jul 27
64 °FThunderstorms. Passing clouds.3 mph100%29.95 "HgN/A
11:00 PM66 °FThunderstorms. Passing clouds.3 mph94%29.92 "HgN/A
10:30 PM68 °FThunderstorms. Passing clouds.9 mph83%29.92 "HgN/A
10:00 PM66 °FThunderstorms. Passing clouds.13 mph88%29.89 "HgN/A
9:30 PM66 °FThunderstorms. Passing clouds.16 mph83%29.89 "Hg4 mi
9:00 PM63 °FThunderstorms. Passing clouds.12 mph100%29.95 "Hg3 mi
8:30 PM66 °FStrong thunderstorms. Partly sunny.10 mph88%29.92 "Hg2 mi
8:00 PM66 °FThunderstorms. Scattered clouds.7 mph88%29.92 "Hg4 mi
7:30 PM66 °FThunderstorms. Scattered clouds.8 mph83%29.86 "HgN/A
7:00 PM64 °FStrong thunderstorms. Partly sunny.8 mph94%29.95 "Hg2 mi
6:30 PM81 °FThunderstorms. Partly sunny.20 mph58%29.86 "HgN/A
6:00 PM81 °FThunderstorms. Broken clouds.5 mph62%29.83 "HgN/A
5:30 PM82 °FThunderstorms. Scattered clouds.5 mph55%29.83 "HgN/A
5:00 PM84 °FThunderstorms. Scattered clouds.8 mph51%29.83 "HgN/A
4:30 PM86 °FScattered clouds.9 mph49%29.83 "HgN/A
4:00 PM84 °FPassing clouds.13 mph48%29.83 "HgN/A
3:30 PM86 °FPassing clouds.10 mph49%29.86 "HgN/A
3:00 PM84 °FPassing clouds.9 mph51%29.86 "HgN/A
2:30 PM84 °FPassing clouds.10 mph51%29.86 "HgN/A
2:00 PM84 °FPassing clouds.12 mph51%29.89 "HgN/A
1:30 PM82 °FPassing clouds.12 mph55%29.89 "HgN/A
1:00 PM82 °FPassing clouds.13 mph55%29.89 "HgN/A
Weather by CustomWeather, © 2014

See weather overviewHow to use our weather pages